Weather History for Douglas, WY

Change the Weather History Date:

Saturday, December 22, 2012

  Actual Average Record
Temperature  
Mean Temperature 39 °F 24 °F  
Max Temperature 54 °F 37 °F 54 °F (2012)
Min Temperature 23 °F 10 °F -12 °F (2011)
Degree Days  
Heating Degree Days 26 41  
Month to date heating degree days 627 898  
Since 1 July heating degree days 2174 2720  
Cooling Degree Days 0 0  
Month to date cooling degree days 0 0  
Year to date cooling degree days 831 486  
Moisture  
Dew Point -1 °F    
Average Humidity 23    
Maximum Humidity 35    
Minimum Humidity 10    
Precipitation  
Precipitation 0.00 in 0.01 in 0.07 in (2013)
Month to date precipitation T 0.30  
Year to date precipitation 5.26 13.29  
Sea Level Pressure  
Sea Level Pressure 29.97 in    
Wind  
Wind Speed 8 mph (West)    
Max Wind Speed 23 mph    
Max Gust Speed 26 mph    
Visibility 10 miles    
Events      
T = Trace of Precipitation, MM = Missing Value Source: NWS Daily Summary

Daily Weather History Graph

Daily Weather History Graph

Search for Another Location

Airport:

Trip Planner

Search our weather history database for the weather conditions in past years. The results will help you decide how hot, cold, wet, or windy it might be!

Date:

Astronomy

Dec. 22, 2012 Rise Set
Actual Time 7:29 AM MST 4:31 PM MST
Civil Twilight 6:57 AM MST 5:03 PM MST
Nautical Twilight 6:21 AM MST 5:39 PM MST
Astronomical Twilight 5:47 AM MST 6:13 PM MST
Moon 12:54 PM MST (12/22) 2:12 AM MST (12/22)
Length of Visible Light 10h 06m
Length of Day
9h 01m
Waxing Gibbous, 74% of the Moon is Illuminated
Dec 22
Waxing Gibbous
Dec 28
Full
Jan 4
Last Quarter
Jan 11
New
Jan 18
First Quarter

Hourly Weather History & Observations

Time (MST) Temp. Windchill Dew Point Humidity Pressure Visibility Wind Dir Wind Speed Gust Speed Precip Events Conditions
12:53 AM 34.0 °F 25.0 °F -0.0 °F 24% 29.98 in 10.0 mi West 12.7 mph - N/A   Clear
1:53 AM 30.0 °F 21.1 °F -0.0 °F 28% 29.98 in 10.0 mi West 10.4 mph - N/A   Clear
2:53 AM 33.1 °F 26.9 °F -0.0 °F 24% 29.99 in 10.0 mi West 6.9 mph - N/A   Clear
3:53 AM 25.0 °F 17.1 °F -0.0 °F 34% 30.01 in 10.0 mi West 6.9 mph - N/A   Clear
5:53 AM 26.1 °F 16.8 °F -0.0 °F 32% 30.08 in 10.0 mi NW 9.2 mph - N/A   Clear
6:53 AM 28.0 °F 17.5 °F -0.0 °F 30% 30.09 in 10.0 mi NNW 12.7 mph - N/A   Clear
7:53 AM 28.9 °F 17.7 °F -0.0 °F 29% 30.11 in 10.0 mi NW 15.0 mph - N/A   Clear
8:53 AM 34.0 °F 25.0 °F 1.0 °F 25% 30.10 in 10.0 mi NNW 12.7 mph - N/A   Clear
9:53 AM 42.1 °F 35.2 °F 1.9 °F 19% 30.06 in 10.0 mi NW 12.7 mph - N/A   Clear
10:53 AM 48.0 °F - 1.9 °F 15% 29.98 in 10.0 mi WNW 10.4 mph - N/A   Clear
11:53 AM 52.0 °F - -0.9 °F 11% 29.93 in 10.0 mi West 11.5 mph 19.6 mph N/A   Clear
12:53 PM 53.1 °F - -2.0 °F 10% 29.92 in 10.0 mi West 15.0 mph 23.0 mph N/A   Clear
1:53 PM 51.1 °F - -2.0 °F 11% 29.93 in 10.0 mi West 5.8 mph - N/A   Clear
2:53 PM 48.0 °F - -0.9 °F 13% 29.91 in 10.0 mi Calm Calm - N/A   Clear
3:53 PM 45.0 °F - -2.0 °F 14% 29.94 in 10.0 mi Calm Calm - N/A   Clear
4:53 PM 37.9 °F 34.4 °F 1.9 °F 22% 29.96 in 10.0 mi ESE 4.6 mph - N/A   Clear
5:53 PM 32.0 °F - -0.0 °F 26% 29.98 in 10.0 mi Calm Calm - N/A   Clear
6:53 PM 36.0 °F 29.6 °F -5.1 °F 17% 29.95 in 10.0 mi WSW 8.1 mph - N/A   Clear
7:53 PM 33.1 °F 26.1 °F -4.0 °F 20% 29.94 in 10.0 mi SSW 8.1 mph - N/A   Clear
8:53 PM 32.0 °F 27.5 °F -2.0 °F 23% 29.91 in 10.0 mi West 4.6 mph - N/A   Clear
9:53 PM 32.0 °F 25.6 °F -0.9 °F 24% 29.87 in 10.0 mi SSE 6.9 mph - N/A   Clear
10:53 PM 39.0 °F 34.0 °F -2.9 °F 17% 29.81 in 10.0 mi South 6.9 mph - N/A   Clear
11:53 PM 36.0 °F 33.3 °F -2.9 °F 19% 29.79 in 10.0 mi Variable 3.5 mph - N/A   Clear